Change the Weather History Date:

Tuesday, May 6, 2014

  Actual Average (KHOT) Record (KHOT)
Temperature  
Mean Temperature 70 °F -  
Max Temperature 82 °F 79 °F 92 °F (1952)
Min Temperature 57 °F 56 °F 43 °F (1992)
Cooling Degree Days 4    
Growing Degree Days 20 (Base 50)    
Moisture  
Dew Point 59 °F    
Average Humidity 64    
Maximum Humidity 87    
Minimum Humidity 47    
Precipitation  
Precipitation 0.00 in - - ()
Sea Level Pressure  
Sea Level Pressure 29.77 in    
Wind  
Wind Speed 3 mph (South)    
Max Wind Speed 8 mph    
Max Gust Speed 17 mph    
Visibility 10 miles    
Events      
Averages and records for this station are not official NWS values.
T = Trace of Precipitation, MM = Missing Value Source: NWS Daily Summary

Daily Weather History Graph

Daily Weather History Graph

Search for Another Location

Airport or City:

Trip Planner

Search our weather history database for the weather conditions in past years. The results will help you decide how hot, cold, wet, or windy it might be!

Date:

Astronomy

May. 06, 2014 Rise Set
Actual Time 6:16 AM CDT 8:02 PM CDT
Civil Twilight 5:48 AM CDT 8:30 PM CDT
Nautical Twilight 5:15 AM CDT 9:03 PM CDT
Astronomical Twilight 4:40 AM CDT 9:38 PM CDT
Moon 12:29 PM CDT (5/6) 1:24 AM CDT (5/6)
Length of Visible Light 14h 41m
Length of Day
13h 46m
Waxing Crescent, 46% of the Moon is Illuminated
May 6
Waxing Crescent
May 6
First Quarter
May 14
Full
May 21
Last Quarter
May 28
New

Hourly Weather History & Observations

Time (CDT) Temp. Heat Index Dew Point Humidity Pressure Visibility Wind Dir Wind Speed Gust Speed Precip Events Conditions
12:53 AM 60.1 °F - 54.0 °F 80% 29.80 in 10.0 mi Calm Calm - N/A   Clear
1:53 AM 59.0 °F - 54.0 °F 83% 29.78 in 10.0 mi Calm Calm - N/A   Clear
2:53 AM 57.9 °F - 54.0 °F 87% 29.77 in 10.0 mi Calm Calm - N/A   Clear
6:53 AM 64.0 °F - 57.0 °F 78% 29.79 in 10.0 mi Calm Calm - N/A   Clear
7:53 AM 66.9 °F - 57.9 °F 73% 29.80 in 10.0 mi Calm Calm - N/A   Clear
9:53 AM 72.0 °F - 57.9 °F 61% 29.81 in 10.0 mi Variable 4.6 mph - N/A   Clear
10:53 AM 73.9 °F - 60.1 °F 62% 29.81 in 10.0 mi South 8.1 mph - N/A   Clear
11:53 AM 77.0 °F - 61.0 °F 58% 29.81 in 10.0 mi South 8.1 mph - N/A   Clear
12:53 PM 78.1 °F - 61.0 °F 56% 29.80 in 10.0 mi Variable 5.8 mph - N/A   Clear
1:53 PM 80.1 °F 80.9 °F 60.1 °F 50% 29.78 in 10.0 mi Variable 4.6 mph - N/A   Clear
2:53 PM 82.0 °F 82.7 °F 61.0 °F 49% 29.77 in 10.0 mi SSW 6.9 mph - N/A   Clear
3:53 PM 82.0 °F 83.0 °F 62.1 °F 51% 29.75 in 10.0 mi SSW 6.9 mph - N/A   Clear
4:53 PM 82.9 °F 83.3 °F 61.0 °F 47% 29.74 in 10.0 mi Variable 4.6 mph 17.3 mph N/A   Clear
5:53 PM 82.9 °F 83.7 °F 62.1 °F 49% 29.72 in 10.0 mi Variable 5.8 mph - N/A   Clear
6:53 PM 81.0 °F 81.7 °F 61.0 °F 50% 29.72 in 10.0 mi South 8.1 mph - N/A   Clear
7:53 PM 78.1 °F - 59.0 °F 52% 29.73 in 10.0 mi Variable 3.5 mph - N/A   Clear
8:53 PM 71.1 °F - 60.1 °F 68% 29.75 in 10.0 mi Calm Calm - N/A   Clear
9:53 PM 71.1 °F - 59.0 °F 66% 29.77 in 10.0 mi Calm Calm - N/A   Clear
10:53 PM 66.9 °F - 59.0 °F 76% 29.79 in 10.0 mi Calm Calm - N/A   Clear
11:53 PM 66.9 °F - 59.0 °F 76% 29.79 in 10.0 mi SE 3.5 mph - N/A   Clear